TimeCDT,TemperatureF,Dew PointF,Humidity,Sea Level PressureIn,VisibilityMPH,Wind Direction,Wind SpeedMPH,Gust SpeedMPH,PrecipitationIn,Events,Conditions,WindDirDegrees,DateUTC
12:15 AM,60.1,50.0,69,30.16,10.0,SSW,8.1,-,N/A,,Mostly Cloudy,210,2013-08-15 05:15:00
12:35 AM,59.9,50.0,70,30.15,10.0,SSW,8.1,-,N/A,,Mostly Cloudy,210,2013-08-15 05:35:00
12:55 AM,59.9,50.2,70,30.15,10.0,SW,5.8,-,N/A,,Mostly Cloudy,220,2013-08-15 05:55:00
1:15 AM,60.8,50.5,69,30.15,10.0,SW,5.8,-,N/A,,Overcast,220,2013-08-15 06:15:00
1:35 AM,58.6,55.4,89,30.15,10.0,SSW,6.9,-,N/A,,Overcast,210,2013-08-15 06:35:00
1:55 AM,59.2,56.3,90,30.15,10.0,SSW,8.1,-,N/A,,Overcast,210,2013-08-15 06:55:00
2:15 AM,59.2,56.3,90,30.15,10.0,SSW,6.9,-,N/A,,Overcast,210,2013-08-15 07:15:00
2:35 AM,59.0,56.5,91,30.15,10.0,SSW,6.9,-,N/A,,Overcast,210,2013-08-15 07:35:00
2:55 AM,59.0,56.5,91,30.15,10.0,SW,4.6,-,N/A,,Overcast,220,2013-08-15 07:55:00
3:15 AM,59.2,56.8,92,30.15,10.0,SW,5.8,-,N/A,,Overcast,220,2013-08-15 08:15:00
3:35 AM,58.6,57.2,95,30.15,10.0,SW,6.9,-,N/A,,Overcast,220,2013-08-15 08:35:00
3:55 AM,59.0,57.4,94,30.15,10.0,SW,6.9,-,N/A,,Overcast,220,2013-08-15 08:55:00
4:15 AM,59.0,57.2,94,30.15,10.0,SW,5.8,-,N/A,,Overcast,230,2013-08-15 09:15:00
4:35 AM,59.2,57.4,94,30.15,10.0,SW,4.6,-,N/A,,Overcast,230,2013-08-15 09:35:00
4:55 AM,60.4,56.7,87,30.15,10.0,WSW,5.8,-,N/A,,Overcast,240,2013-08-15 09:55:00
5:15 AM,60.4,56.1,86,30.15,10.0,SW,5.8,-,N/A,,Overcast,230,2013-08-15 10:15:00
5:35 AM,60.6,56.7,87,30.15,10.0,SW,5.8,-,N/A,,Overcast,230,2013-08-15 10:35:00
5:55 AM,59.9,57.2,91,30.15,10.0,SW,5.8,-,N/A,,Overcast,220,2013-08-15 10:55:00
6:15 AM,61.2,52.0,72,30.15,10.0,SW,5.8,-,N/A,,Overcast,230,2013-08-15 11:15:00
6:35 AM,61.2,52.2,72,30.15,10.0,SW,4.6,-,N/A,,Overcast,220,2013-08-15 11:35:00
6:55 AM,61.2,52.0,72,30.15,10.0,WSW,6.9,-,N/A,,Overcast,240,2013-08-15 11:55:00
7:15 AM,61.7,51.8,70,30.16,10.0,SW,6.9,-,N/A,,Overcast,230,2013-08-15 12:15:00
7:35 AM,62.6,52.5,70,30.16,10.0,WSW,6.9,-,N/A,,Overcast,240,2013-08-15 12:35:00
7:55 AM,62.8,51.6,67,30.17,10.0,WSW,8.1,-,N/A,,Overcast,240,2013-08-15 12:55:00
8:15 AM,63.7,51.4,64,30.17,10.0,West,9.2,-,N/A,,Overcast,260,2013-08-15 13:15:00
8:35 AM,64.6,51.4,62,30.17,10.0,West,8.1,-,N/A,,Overcast,260,2013-08-15 13:35:00
8:55 AM,65.7,51.8,61,30.17,10.0,West,8.1,-,N/A,,Overcast,260,2013-08-15 13:55:00
9:15 AM,66.4,52.0,60,30.17,10.0,West,8.1,-,N/A,,Overcast,260,2013-08-15 14:15:00
9:35 AM,68.0,52.0,56,30.17,10.0,West,6.9,-,N/A,,Overcast,270,2013-08-15 14:35:00
9:55 AM,68.5,48.7,49,30.17,10.0,West,8.1,-,N/A,,Overcast,280,2013-08-15 14:55:00
10:15 AM,69.3,50.2,51,30.17,10.0,West,6.9,-,N/A,,Overcast,260,2013-08-15 15:15:00
10:35 AM,70.9,49.1,46,30.17,10.0,West,8.1,-,N/A,,Overcast,280,2013-08-15 15:35:00
10:55 AM,72.1,48.0,42,30.17,10.0,West,5.8,-,N/A,,Overcast,270,2013-08-15 15:55:00
11:15 AM,73.6,47.5,39,30.16,10.0,NW,5.8,-,N/A,,Scattered Clouds,310,2013-08-15 16:15:00
11:35 AM,74.5,47.5,38,30.16,10.0,West,8.1,-,N/A,,Clear,280,2013-08-15 16:35:00
11:55 AM,74.7,46.9,37,30.15,10.0,WNW,4.6,-,N/A,,Clear,290,2013-08-15 16:55:00
12:15 PM,74.3,46.2,37,30.15,10.0,Calm,Calm,-,N/A,,Scattered Clouds,0,2013-08-15 17:15:00
12:35 PM,75.6,45.5,34,30.15,10.0,West,5.8,-,N/A,,Mostly Cloudy,260,2013-08-15 17:35:00
12:55 PM,76.3,46.0,34,30.14,10.0,SW,8.1,-,N/A,,Mostly Cloudy,230,2013-08-15 17:55:00
1:00 PM,75.2,46.4,36,30.14,10.0,WSW,6.9,-,N/A,,Overcast,250,2013-08-15 18:00:00
1:15 PM,74.7,44.4,34,30.13,10.0,Calm,Calm,-,N/A,,Overcast,0,2013-08-15 18:15:00
1:20 PM,73.4,46.4,38,30.13,10.0,North,3.5,-,N/A,,Overcast,10,2013-08-15 18:20:00
1:35 PM,73.8,45.0,36,30.13,10.0,Calm,Calm,-,N/A,,Overcast,0,2013-08-15 18:35:00
1:40 PM,73.4,46.4,38,30.13,10.0,NNW,4.6,-,N/A,,Overcast,330,2013-08-15 18:40:00
1:55 PM,74.8,47.3,38,30.13,10.0,NW,4.6,-,N/A,,Overcast,310,2013-08-15 18:55:00
2:15 PM,74.7,44.8,34,30.13,10.0,West,5.8,-,N/A,,Mostly Cloudy,260,2013-08-15 19:15:00
2:35 PM,75.2,42.6,31,30.12,10.0,WSW,6.9,-,N/A,,Overcast,240,2013-08-15 19:35:00
2:55 PM,75.7,43.9,32,30.12,10.0,WSW,4.6,-,N/A,,Overcast,250,2013-08-15 19:55:00
3:15 PM,76.5,48.2,37,30.12,10.0,West,10.4,-,N/A,,Mostly Cloudy,270,2013-08-15 20:15:00
3:35 PM,76.5,46.6,35,30.12,10.0,WSW,9.2,-,N/A,,Mostly Cloudy,240,2013-08-15 20:35:00
3:55 PM,74.8,46.6,37,30.11,10.0,WSW,6.9,-,N/A,,Clear,240,2013-08-15 20:55:00
4:15 PM,76.5,45.3,33,30.11,10.0,WSW,8.1,-,N/A,,Clear,240,2013-08-15 21:15:00
4:35 PM,75.6,45.0,34,30.11,10.0,WSW,4.6,-,N/A,,Scattered Clouds,250,2013-08-15 21:35:00
4:55 PM,75.9,46.0,35,30.11,10.0,WSW,8.1,-,N/A,,Mostly Cloudy,250,2013-08-15 21:55:00
5:15 PM,76.1,45.7,34,30.11,10.0,West,10.4,-,N/A,,Overcast,260,2013-08-15 22:15:00
5:35 PM,74.5,48.0,39,30.11,10.0,WSW,9.2,-,N/A,,Overcast,250,2013-08-15 22:35:00
5:55 PM,74.3,48.6,40,30.12,10.0,WSW,5.8,-,N/A,,Overcast,250,2013-08-15 22:55:00
6:15 PM,73.6,48.4,41,30.11,10.0,WSW,8.1,-,N/A,,Mostly Cloudy,250,2013-08-15 23:15:00
6:35 PM,73.4,50.7,45,30.11,10.0,WSW,6.9,-,N/A,,Clear,240,2013-08-15 23:35:00
6:55 PM,72.7,50.9,46,30.12,10.0,WSW,6.9,-,N/A,,Mostly Cloudy,240,2013-08-15 23:55:00
7:15 PM,70.7,51.8,51,30.12,10.0,WSW,6.9,-,N/A,,Mostly Cloudy,240,2013-08-16 00:15:00
7:35 PM,69.6,51.8,53,30.12,10.0,WSW,8.1,-,N/A,,Scattered Clouds,240,2013-08-16 00:35:00
7:55 PM,68.5,51.8,55,30.12,10.0,SW,6.9,-,N/A,,Clear,230,2013-08-16 00:55:00
8:15 PM,68.2,52.0,56,30.13,10.0,WSW,8.1,-,N/A,,Clear,240,2013-08-16 01:15:00
8:35 PM,67.8,52.0,57,30.13,10.0,WSW,8.1,-,N/A,,Clear,240,2013-08-16 01:35:00
8:55 PM,67.5,52.0,58,30.13,10.0,WSW,6.9,-,N/A,,Clear,240,2013-08-16 01:55:00
9:15 PM,68.0,52.0,56,30.13,10.0,WSW,9.2,-,N/A,,Clear,250,2013-08-16 02:15:00
9:35 PM,67.1,52.0,58,30.14,10.0,WSW,9.2,-,N/A,,Clear,250,2013-08-16 02:35:00
9:55 PM,67.5,51.4,56,30.14,10.0,WSW,10.4,-,N/A,,Clear,250,2013-08-16 02:55:00
10:15 PM,65.5,51.8,61,30.14,10.0,WSW,9.2,-,N/A,,Clear,250,2013-08-16 03:15:00
10:35 PM,65.7,51.8,61,30.14,10.0,WSW,9.2,-,N/A,,Clear,250,2013-08-16 03:35:00
10:55 PM,66.4,52.0,60,30.15,10.0,WSW,10.4,-,N/A,,Scattered Clouds,250,2013-08-16 03:55:00
11:15 PM,65.8,52.0,61,30.15,10.0,WSW,10.4,-,N/A,,Scattered Clouds,250,2013-08-16 04:15:00
11:35 PM,65.3,52.3,63,30.15,10.0,West,11.5,-,N/A,,Clear,260,2013-08-16 04:35:00
11:55 PM,64.6,52.5,65,30.15,10.0,West,10.4,-,N/A,,Clear,260,2013-08-16 04:55:00